Location: Arran
(51.9410°N, 101.7372°W)
Time: 13:16:28
(UTC+00:00)

Oscar 19 - Pass Details

Date: 01 December 2023
Orbit: 771 x 789 km, 98.9° (Epoch: 29 February)

Event Time Altitude Azimuth Distance (km) Brightness Sun altitude
Rises 23:53:07 0° 212° (SSW) 3,237 14.8 -10.8°
Reaches altitude 10° 23:56:16 10° 232° (SW) 2,315 14.4 -11.2°
Maximum altitude 23:59:29 17° 272° (W) 1,893 13.7 -11.7°
Drops below altitude 10° 00:02:44 10° 312° (NW) 2,328 13.5 -12.2°
Sets 00:05:55 0° 332° (NNW) 3,262 14.0 -12.6°
